Reading, PA

5:41 AM EST on December 10, 2019 (GMT -0500)
Reading Regional-Spaatz

Weather History for KRDG - August, 2019

Change the Weather History Date:

Monday, August 5, 2019

  Actual Average Record
Temperature  
Mean Temperature 77 °F 74 °F  
Max Temperature 85 °F 85 °F 100 °F (1955)
Min Temperature 68 °F 64 °F 51 °F (1912)
Degree Days  
Heating Degree Days 0 0  
Month to date heating degree days 0 0  
Since 1 June heating degree days 16 25  
Since 1 July heating degree days 0 1  
Cooling Degree Days 12 9  
Month to date cooling degree days 64 45  
Year to date cooling degree days 802 597  
Since 1 June cooling degree days 697 537  
Growing Degree Days 26 (Base 50)    
Moisture  
Dew Point 63 °F    
Average Humidity 64    
Maximum Humidity 87    
Minimum Humidity 40    
Precipitation  
Precipitation 0.00 in 0.12 in 1.66 in (1948)
Month to date precipitation 0.21 0.60  
Year to date precipitation 38.50 25.92  
Sea Level Pressure  
Sea Level Pressure 29.97 in    
Wind  
Wind Speed 3 mph (NNW)    
Max Wind Speed 9 mph    
Max Gust Speed 12 mph    
Visibility 10 miles    
Events      
T = Trace of Precipitation, MM = Missing Value Source: NWS Daily Summary

Daily Weather History Graph

Daily Weather History Graph

Search for Another Location

Airport or City:

Astronomy

Aug. 05, 2019 Rise Set
Actual Time 6:04 AM EDT 8:14 PM EDT
Civil Twilight 5:34 AM EDT 8:44 PM EDT
Nautical Twilight 4:57 AM EDT 9:21 PM EDT
Astronomical Twilight 4:17 AM EDT 10:01 PM EDT
Moon 11:19 AM EDT (8/5) 11:24 PM EDT (8/5)
Length of Visible Light 15h 09m
Length of Day
14h 09m
Waxing Crescent, 28% of the Moon is Illuminated
Aug 5
Waxing Crescent
Aug 7
First Quarter
Aug 15
Full
Aug 23
Last Quarter
Aug 30
New

Hourly Weather History & Observations

Time (EDT) Temp. Heat Index Dew Point Humidity Pressure Visibility Wind Dir Wind Speed Gust Speed Precip Events Conditions
12:54 AM 75.9 °F - 66.9 °F 74% 29.96 in 10.0 mi Calm Calm - 0.00 in   Overcast
1:54 AM 73.9 °F - 64.9 °F 73% 29.96 in 10.0 mi NNE 5.8 mph - N/A   Overcast
2:54 AM 72.0 °F - 64.0 °F 76% 29.96 in 10.0 mi North 4.6 mph - N/A   Clear
3:54 AM 71.1 °F - 64.0 °F 78% 29.96 in 10.0 mi Calm Calm - N/A   Clear
4:54 AM 69.1 °F - 64.0 °F 84% 29.98 in 10.0 mi NNW 4.6 mph - N/A   Clear
5:54 AM 68.0 °F - 63.0 °F 84% 29.99 in 10.0 mi NNW 5.8 mph - N/A   Clear
6:54 AM 69.1 °F - 61.0 °F 75% 30.00 in 10.0 mi Calm Calm - N/A   Clear
7:54 AM 70.0 °F - 61.0 °F 73% 30.02 in 10.0 mi North 4.6 mph - N/A   Clear
8:54 AM 71.1 °F - 60.1 °F 68% 30.03 in 10.0 mi Calm Calm - N/A   Clear
9:54 AM 75.0 °F - 59.0 °F 57% 30.02 in 10.0 mi Variable 3.5 mph - N/A   Clear
10:54 AM 78.1 °F - 57.0 °F 48% 30.02 in 10.0 mi NE 3.5 mph - N/A   Clear
11:54 AM 80.1 °F 80.7 °F 59.0 °F 48% 30.01 in 10.0 mi North 5.8 mph - N/A   Clear
12:54 PM 82.0 °F 81.6 °F 55.9 °F 41% 30.00 in 10.0 mi NW 6.9 mph - N/A   Clear
1:54 PM 82.9 °F 82.4 °F 57.0 °F 41% 29.98 in 10.0 mi West 3.5 mph - N/A   Clear
2:54 PM 84.0 °F 84.5 °F 62.1 °F 47% 29.96 in 10.0 mi North 6.9 mph - N/A   Clear
3:54 PM 84.0 °F 84.9 °F 63.0 °F 49% 29.95 in 10.0 mi Calm Calm - N/A   Clear
4:54 PM 84.0 °F 85.8 °F 64.9 °F 53% 29.94 in 10.0 mi WNW 5.8 mph - N/A   Clear
5:54 PM 82.9 °F 84.6 °F 64.9 °F 54% 29.94 in 10.0 mi Variable 3.5 mph - N/A   Clear
6:54 PM 82.0 °F 83.8 °F 64.9 °F 56% 29.94 in 10.0 mi South 3.5 mph - N/A   Clear
7:54 PM 82.0 °F 83.8 °F 64.9 °F 56% 29.93 in 10.0 mi Calm Calm - N/A   Clear
8:54 PM 77.0 °F - 66.9 °F 71% 29.93 in 10.0 mi Calm Calm - N/A   Clear
9:54 PM 77.0 °F - 66.9 °F 71% 29.94 in 10.0 mi Calm Calm - N/A   Clear
10:54 PM 73.9 °F - 69.1 °F 85% 29.93 in 10.0 mi Calm Calm - N/A   Clear
11:54 PM 73.0 °F - 69.1 °F 87% 29.94 in 10.0 mi NNW 3.5 mph - N/A   Clear